N9GKE-1 Weather Reports


time (UTC)temp
F
wind
direction
speed
knots
gust
knots
rain 1hr
in
rain 24hr
in
rain mn
in
humidity
%
barometer
mb
20260905224345 86 45 0.9 12.2 0.00 0.00 0.00 71 1011.1
20260905224244 86 92 1.7 12.2 0.00 0.00 0.00 71 1011.1
20260905223345 86 35 2.6 12.2 0.00 0.00 0.00 70 1011.0
20260905223244 86 33 4.3 12.2 0.00 0.00 0.00 70 1010.9
20260905222344 87 357 0.9 12.2 0.00 0.00 0.00 71 1010.8
20260905222245 87 346 1.7 12.2 0.00 0.00 0.00 71 1010.8
20260905221344 87 24 1.7 12.2 0.00 0.00 0.00 71 1010.6
20260905221244 87 0 2.6 12.2 0.00 0.00 0.00 71 1010.7
20260905220345 87 37 2.6 12.2 0.00 0.00 0.00 71 1010.7
20260905220244 88 39 2.6 12.2 0.00 0.00 0.00 71 1010.5
20260905215344 88 61 2.6 12.2 0.00 0.00 0.00 71 1010.6
20260905215244 88 30 1.7 12.2 0.00 0.00 0.00 72 1010.6
20260905214345 88 2 4.3 12.2 0.00 0.00 0.00 71 1010.6
20260905214244 89 28 2.6 12.2 0.00 0.00 0.00 71 1010.5
20260905213343 89 321 1.7 12.2 0.00 0.00 0.00 71 1010.3
20260905212345 89 17 1.7 12.2 0.00 0.00 0.00 71 1010.2
20260905212244 89 69 0.9 12.2 0.00 0.00 0.00 70 1010.2
20260905211346 90 30 1.7 12.2 0.00 0.00 0.00 71 1010.1
20260905211245 90 345 1.7 12.2 0.00 0.00 0.00 72 1010.1
20260905210344 90 18 0.9 12.2 0.00 0.00 0.00 72 1010.1
20260905210245 90 293 0.9 12.2 0.00 0.00 0.00 71 1010.1
20260905205345 91 343 1.7 12.2 0.00 0.00 0.00 72 1010.1
20260905205244 91 13 2.6 12.2 0.00 0.00 0.00 71 1010.2
20260905204343 90 32 0.9 12.2 0.00 0.00 0.00 71 1010.3
20260905204244 90 338 1.7 12.2 0.00 0.00 0.00 71 1010.3
20260905203343 90 316 0.9 12.2 0.00 0.00 0.00 69 1010.2
20260905203244 91 295 1.7 12.2 0.00 0.00 0.00 69 1010.2
20260905202344 91 343 0.9 12.2 0.00 0.00 0.00 68 1010.2
20260905202243 91 327 1.7 12.2 0.00 0.00 0.00 67 1010.2
20260905201344 91 318 1.7 12.2 0.00 0.00 0.00 68 1010.2
20260905201245 91 1 2.6 12.2 0.00 0.00 0.00 68 1010.3
20260905200344 90 54 1.7 12.2 0.00 0.00 0.00 70 1010.3
20260905200243 90 356 1.7 12.2 0.00 0.00 0.00 72 1010.3
20260905195345 89 34 0.9 12.2 0.00 0.00 0.00 72 1010.3
20260905195244 89 34 0.9 12.2 0.00 0.00 0.00 71 1010.3
20260905194345 88 15 0.9 12.2 0.00 0.00 0.00 70 1010.5
20260905194245 88 352 1.7 12.2 0.00 0.00 0.00 70 1010.5
20260905193345 90 53 4.3 12.2 0.00 0.00 0.00 68 1010.9
20260905193244 90 53 2.6 12.2 0.00 0.00 0.00 68 1010.9
20260905192343 91 302 1.7 12.2 0.00 0.00 0.00 70 1011.1
20260905192244 91 3 0.9 12.2 0.00 0.00 0.00 70 1011.1
20260905191345 91 333 0.9 12.2 0.00 0.00 0.00 67 1011.1
20260905191245 91 344 0.9 12.2 0.00 0.00 0.00 67 1011.1
20260905190344 92 276 1.7 12.2 0.00 0.00 0.00 66 1010.8
20260905190245 92 310 2.6 12.2 0.00 0.00 0.00 66 1010.9
20260905185344 93 353 2.6 12.2 0.00 0.00 0.00 64 1011.1
20260905185244 93 318 4.3 12.2 0.00 0.00 0.00 64 1011.2
20260905184345 92 46 0.9 12.2 0.00 0.00 0.00 68 1011.1
20260905184244 92 352 0.9 12.2 0.00 0.00 0.00 67 1011.2
20260905183344 91 192 0.9 12.2 0.00 0.00 0.00 67 1011.2
20260905183244 91 222 0.9 12.2 0.00 0.00 0.00 66 1011.3
20260905182343 91 329 1.7 12.2 0.00 0.00 0.00 67 1011.6
20260905182244 91 342 0.9 12.2 0.00 0.00 0.00 68 1011.6
20260905181344 90 176 0.9 12.2 0.00 0.00 0.00 68 1011.6
20260905181245 90 29 0.0 12.2 0.00 0.00 0.00 69 1011.7
20260905180343 90 206 0.9 12.2 0.00 0.00 0.00 70 1011.7
20260905180243 90 217 0.9 12.2 0.00 0.00 0.00 69 1011.8
20260905175344 90 312 0.9 12.2 0.00 0.00 0.00 68 1011.9
20260905175245 90 325 1.7 12.2 0.00 0.00 0.00 67 1012.0
20260905174343 90 331 0.9 12.2 0.00 0.00 0.00 67 1012.1
20260905173345 89 236 0.9 12.2 0.00 0.00 0.00 69 1012.2
20260905173243 89 245 0.9 12.2 0.00 0.00 0.00 68 1012.2
20260905172343 89 274 0.9 12.2 0.00 0.00 0.00 69 1012.3
20260905172244 89 320 0.0 12.2 0.00 0.00 0.00 68 1012.3
20260905171345 88 253 0.0 12.2 0.00 0.00 0.00 68 1012.5
20260905171244 88 231 0.9 12.2 0.00 0.00 0.00 69 1012.6
20260905170345 88 136 2.6 12.2 0.00 0.00 0.00 67 1012.5
20260905165344 88 199 0.9 12.2 0.00 0.00 0.00 69 1012.7
20260905165243 88 218 0.9 12.2 0.00 0.00 0.00 68 1012.7
20260905164343 87 205 0.9 12.2 0.00 0.00 0.00 68 1012.7
20260905164243 87 180 1.7 12.2 0.00 0.00 0.00 67 1012.8
20260905163345 87 187 0.9 12.2 0.00 0.00 0.00 68 1012.7
20260905163245 87 173 0.9 12.2 0.00 0.00 0.00 68 1012.7
20260905162344 87 165 0.9 12.2 0.00 0.00 0.00 70 1012.7
20260905161344 86 114 0.0 12.2 0.00 0.00 0.00 71 1012.7
20260905161244 86 150 0.9 12.2 0.00 0.00 0.00 70 1012.7
20260905160345 85 200 0.9 12.2 0.00 0.00 0.00 72 1012.7
20260905155346 85 176 0.9 12.2 0.00 0.00 0.00 72 1012.7
20260905155245 85 175 0.9 12.2 0.00 0.00 0.00 73 1012.8
20260905154345 84 183 1.7 12.2 0.00 0.00 0.00 73 1012.7
20260905154244 83 205 0.9 12.2 0.00 0.00 0.00 73 1012.8
20260905153344 83 182 1.7 12.2 0.00 0.00 0.00 74 1012.8
20260905153244 83 174 1.7 12.2 0.00 0.00 0.00 73 1012.8
20260905152344 82 215 0.9 12.2 0.00 0.00 0.00 75 1012.8
20260905152244 82 225 0.9 12.2 0.00 0.00 0.00 76 1012.8
20260905151343 81 173 1.7 12.2 0.00 0.00 0.00 77 1012.7
20260905150344 80 221 2.6 12.2 0.00 0.00 0.00 77 1012.6
20260905150244 80 197 2.6 12.2 0.00 0.00 0.00 77 1012.6
20260905145343 80 167 1.7 11.3 0.00 0.00 0.00 79 1012.8
20260905145243 80 177 1.7 11.3 0.00 0.00 0.00 79 1012.9
20260905144345 79 168 0.9 11.3 0.00 0.00 0.00 81 1013.0
20260905143345 79 174 1.7 11.3 0.00 0.00 0.00 82 1012.9
20260905142344 79 168 0.9 11.3 0.00 0.00 0.00 82 1012.8
20260905142243 79 173 0.9 11.3 0.00 0.00 0.00 82 1012.8
20260905141344 79 175 1.7 11.3 0.00 0.00 0.00 83 1012.6
20260905140343 78 192 0.9 11.3 0.00 0.00 0.00 81 1012.7
20260905140244 78 196 1.7 11.3 0.00 0.00 0.00 80 1012.6
20260905135346 78 204 0.9 11.3 0.00 0.00 0.00 81 1012.5
20260905135244 78 184 1.7 11.3 0.00 0.00 0.00 81 1012.5
20260905134344 78 170 4.3 11.3 0.00 0.00 0.00 81 1012.4
20260905134244 78 193 2.6 11.3 0.00 0.00 0.00 82 1012.4
20260905133344 78 183 4.3 11.3 0.00 0.00 0.00 83 1012.4
20260905133243 78 182 4.3 11.3 0.00 0.00 0.00 84 1012.5
20260905132345 77 154 2.6 11.3 0.00 0.00 0.00 83 1012.7
20260905132244 78 157 1.7 11.3 0.00 0.00 0.00 83 1012.7
20260905131344 78 143 1.7 11.3 0.00 0.00 0.00 81 1012.7
20260905131244 78 175 2.6 11.3 0.00 0.00 0.00 81 1012.7
20260905130343 78 170 0.9 11.3 0.00 0.00 0.00 82 1012.7
20260905130244 78 183 1.7 11.3 0.00 0.00 0.00 82 1012.7
20260905125343 77 177 1.7 11.3 0.00 0.00 0.00 83 1012.7
20260905124344 77 186 1.7 11.3 0.00 0.00 0.00 87 1012.7
20260905124244 77 185 4.3 11.3 0.00 0.00 0.00 87 1012.6
20260905123344 77 161 4.3 11.3 0.00 0.00 0.00 89 1012.6
20260905122343 77 155 1.7 7.0 0.00 0.00 0.00 91 1012.5
20260905121344 76 102 0.9 6.1 0.00 0.00 0.00 94 1012.3
20260905120344 76 103 1.7 6.1 0.00 0.00 0.00 94 1012.1
20260905120245 76 112 0.9 6.1 0.00 0.00 0.00 94 1012.1
20260905115343 76 241 0.9 1.7 0.00 0.00 0.00 94 1012.0
20260905114343 75 241 0.9 0.9 0.00 0.00 0.00 94 1011.9
20260905113344 76 241 0.0 0.9 0.00 0.00 0.00 94 1011.9
20260905113243 76 241 0.0 0.9 0.00 0.00 0.00 94 1011.9
20260905112343 76 241 0.0 0.9 0.00 0.00 0.00 94 1011.7
20260905112244 76 241 0.0 0.9 0.00 0.00 0.00 94 1011.7
20260905111343 76 241 0.0 0.9 0.00 0.00 0.00 94 1011.6
20260905111244 76 241 0.0 0.9 0.00 0.00 0.00 94 1011.5
20260905110344 76 241 0.0 0.9 0.00 0.00 0.00 94 1011.4
20260905110243 76 241 0.0 0.9 0.00 0.00 0.00 94 1011.4
20260905105343 76 241 0.0 0.9 0.00 0.00 0.00 94 1011.3
20260905104343 76 241 0.0 0.9 0.00 0.00 0.00 94 1011.4
20260905104243 76 241 0.0 0.9 0.00 0.00 0.00 94 1011.4
20260905103343 76 241 0.0 0.9 0.00 0.00 0.00 94 1011.4
20260905102343 76 241 0.0 0.9 0.00 0.00 0.00 94 1011.3
20260905102244 76 241 0.0 0.9 0.00 0.00 0.00 94 1011.4
20260905101343 76 241 0.0 0.9 0.00 0.00 0.00 94 1011.3
20260905101244 76 241 0.0 0.9 0.00 0.00 0.00 94 1011.3
20260905100344 76 241 0.0 0.9 0.00 0.00 0.00 93 1011.5
20260905095343 76 241 0.0 0.9 0.00 0.00 0.00 93 1011.6
20260905094343 76 241 0.0 0.9 0.00 0.00 0.00 93 1011.6
20260905093344 76 241 0.0 0.9 0.00 0.00 0.00 92 1011.7
20260905092344 76 241 0.0 0.9 0.00 0.00 0.00 92 1011.6
20260905091343 77 241 0.0 0.9 0.00 0.00 0.00 92 1011.5
20260905090344 77 241 0.0 0.9 0.00 0.00 0.00 91 1011.5
20260905090244 77 241 0.0 0.9 0.00 0.00 0.00 91 1011.5
20260905085344 77 241 0.0 0.9 0.00 0.00 0.00 91 1011.5
20260905084343 77 241 0.0 0.9 0.00 0.00 0.00 91 1011.6
20260905083343 78 241 0.0 0.9 0.00 0.00 0.00 91 1011.5
20260905082344 78 241 0.0 0.9 0.00 0.00 0.00 91 1011.5
20260905082243 78 241 0.0 0.9 0.00 0.00 0.00 91 1011.4
20260905081344 78 241 0.0 0.9 0.00 0.00 0.00 91 1011.3
20260905080344 78 241 0.0 0.9 0.00 0.00 0.00 90 1011.2
20260905075343 78 241 0.0 0.9 0.00 0.00 0.00 90 1011.1
20260905074343 78 241 0.0 0.9 0.00 0.00 0.00 90 1011.0
20260905073344 78 241 0.0 0.9 0.00 0.00 0.00 90 1010.9
20260905072344 78 241 0.0 0.9 0.00 0.00 0.00 91 1010.8
20260905071343 78 241 0.0 0.9 0.00 0.00 0.00 91 1010.9
20260905070344 78 241 0.0 0.9 0.00 0.00 0.00 92 1010.8
20260905065344 78 241 0.0 0.9 0.00 0.00 0.00 92 1010.9
20260905064344 78 241 0.0 0.9 0.00 0.00 0.00 91 1011.0
20260905064244 78 241 0.0 0.9 0.00 0.00 0.00 92 1011.1
20260905063343 78 241 0.0 0.9 0.00 0.00 0.00 91 1011.1
20260905062343 78 241 0.0 0.9 0.00 0.00 0.00 91 1011.4
20260905061343 78 241 0.0 0.9 0.00 0.00 0.00 91 1011.5
20260905061244 78 241 0.0 0.9 0.00 0.00 0.00 91 1011.5
20260905060343 78 241 0.0 0.9 0.00 0.00 0.00 91 1011.7
20260905055343 78 241 0.0 0.9 0.00 0.00 0.00 91 1011.8
20260905055244 78 241 0.0 0.9 0.00 0.00 0.00 91 1011.8
20260905054344 78 241 0.0 0.9 0.00 0.00 0.00 91 1011.8
20260905053343 78 241 0.0 0.9 0.00 0.00 0.00 90 1011.8
20260905052343 78 241 0.0 0.9 0.00 0.00 0.00 90 1011.9
20260905051344 78 241 0.0 0.9 0.00 0.00 0.00 89 1012.1
20260905051243 78 241 0.0 0.9 0.00 0.00 0.00 89 1012.0
20260905050342 79 241 0.0 0.9 0.00 0.00 0.00 89 1012.2
20260905045343 79 241 0.0 0.9 0.00 0.00 0.00 89 1012.1
20260905044344 79 241 0.0 0.9 0.00 0.00 0.00 89 1012.1
20260905043343 79 241 0.0 0.9 0.00 0.00 0.00 88 1012.1
20260905042344 80 241 0.0 0.0 0.00 0.00 0.00 88 1012.1
20260905041343 80 241 0.0 0.0 0.00 0.00 0.00 87 1012.1
20260905040342 80 241 0.0 0.0 0.00 0.00 0.00 87 1012.2
20260905040243 80 241 0.0 0.0 0.00 0.00 0.00 86 1012.3
20260905035344 80 241 0.0 7.8 0.00 0.00 0.00 86 1012.3
20260905034344 81 241 0.0 7.8 0.00 0.00 0.00 85 1012.3
20260905033344 81 241 0.0 7.8 0.00 0.00 0.00 85 1012.2
20260905032343 81 241 0.0 7.8 0.00 0.00 0.00 84 1012.2
20260905031342 82 241 0.0 7.8 0.00 0.00 0.00 83 1012.3
20260905030342 82 241 0.0 7.8 0.00 0.00 0.00 83 1012.2
20260905025344 82 241 0.0 7.8 0.00 0.00 0.00 82 1012.2
20260905024343 83 241 0.0 7.8 0.00 0.00 0.00 82 1012.2
20260905024244 83 241 0.0 7.8 0.00 0.00 0.00 82 1012.2
20260905023342 83 241 0.0 7.8 0.00 0.00 0.00 81 1012.1
20260905022344 84 241 0.0 7.8 0.00 0.00 0.00 80 1012.0
20260905021344 84 241 0.0 7.8 0.00 0.00 0.00 79 1011.9
20260905020343 85 241 0.0 7.8 0.00 0.00 0.00 78 1011.9
20260905015342 85 241 0.0 7.8 0.00 0.00 0.00 76 1011.9
20260905015243 85 241 0.0 7.8 0.00 0.00 0.00 76 1011.8
20260905014343 86 241 0.0 7.8 0.00 0.00 0.00 76 1011.7
20260905013344 86 241 0.0 7.8 0.00 0.00 0.00 74 1011.6
20260905012345 87 241 0.0 7.8 0.00 0.00 0.00 73 1011.7
20260905011344 87 241 0.0 7.8 0.00 0.00 0.00 73 1011.6
20260905010345 87 241 0.0 7.8 0.00 0.00 0.00 73 1011.5
20260905010245 87 241 0.0 7.8 0.00 0.00 0.00 73 1011.5
20260905005345 87 241 0.0 7.8 0.00 0.00 0.00 73 1011.5
20260905004344 88 241 0.0 7.8 0.00 0.00 0.00 72 1011.5
20260905003346 88 241 0.0 7.8 0.00 0.00 0.00 71 1011.5
20260905002345 89 241 0.0 7.8 0.00 0.00 0.00 70 1011.5
20260905001344 90 241 0.0 7.8 0.00 0.00 0.00 68 1011.6
20260905001247 90 241 0.0 7.8 0.00 0.00 0.00 68 1011.6
20260905000344 90 241 0.0 7.8 0.00 0.00 0.00 67 1011.6
20260905000245 90 241 0.0 7.8 0.00 0.00 0.00 67 1011.6
20260904235345 91 241 0.0 7.8 0.00 0.00 0.00 66 1011.5
20260904234344 92 241 0.0 7.8 0.00 0.00 0.00 64 1011.6
20260904233344 92 241 0.0 7.8 0.00 0.00 0.00 63 1011.5
20260904232343 93 241 0.0 7.8 0.00 0.00 0.00 62 1011.4
20260904231344 93 178 0.0 7.8 0.00 0.00 0.00 61 1011.2
20260904231245 93 178 0.0 7.8 0.00 0.00 0.00 60 1011.2
20260904230344 93 270 0.0 7.8 0.00 0.00 0.00 59 1011.2
20260904225344 94 321 0.9 7.8 0.00 0.00 0.00 60 1011.2
20260904225245 94 321 0.9 7.8 0.00 0.00 0.00 60 1011.2